Location: Asheville, NC
(35.6000°N, 82.5500°W)
Time: 17:01:40
(UTC-05:00)

KAITUO 1B - Pass Details

Date: 05 January 2018
Orbit: 500 x 521 km, 97.5° (Epoch: 21 January)

Event Time Altitude Azimuth Distance (km) Brightness Sun altitude
Rises 06:12:56 0° 23° (NNE) 2,621 ? -17.3°
Reaches altitude 10° 06:15:13 10° 35° (NE) 1,727 ? -16.9°
Maximum altitude 06:18:31 29° 97° (E) 937 ? -16.2°
Drops below altitude 10° 06:21:46 10° 159° (SSE) 1,704 ? -15.6°
Sets 06:24:00 0° 171° (S) 2,580 ? -15.2°
